Location: Unspecified
(0.0000°N, 0.0000°E)
Time: 01:59:46
(UTC+00:00)

deb Explorer IX - Pass Details

Date: 21 November 2019
Orbit: 546 x 1104 km, 38.8° (Epoch: 11 December)

Event Time Altitude Azimuth Distance (km) Brightness Sun altitude
Rises 19:33:16 0° 220° (SW) 3,730 ? -25.1°
Reaches altitude 10° 19:35:55 10° 216° (SW) 2,838 ? -25.7°
Maximum altitude 19:42:49 57° 138° (SE) 1,267 ? -27.3°
Enters shadow 19:43:36 54° 114° (ESE) 1,303 ? -27.5°
